Regional Weather Roundup
Issued by NWS Raleigh/Durham, NC

Home | Current Version | Previous Version | Text Only | Print | Product List | Glossary On
Versions: 1 2 3 4 5 6 7 8 9 10 11 12 13 14 15 16 17 18 19 20 21 22 23 24 25 26 27 28 29 30 31 32 33 34 35 36 37 38 39 40 41 42 43 44 45 46 47 48 49 50
000
ASUS42 KRAH 151910
RWRRAH
NORTH CAROLINA WEATHER ROUNDUP
NATIONAL WEATHER SERVICE RALEIGH NC
200 PM EST FRI DEC 15 2017

NOTE: "FAIR" INDICATES FEW OR NO CLOUDS BELOW 12,000 FEET WITH NO
SIGNIFICANT WEATHER AND/OR OBSTRUCTIONS TO VISIBILITY.

NCZ001-053-055-056-065-067-152000-
WESTERN NORTH CAROLINA

CITY           SKY/WX    TMP DP  RH WIND       PRES   REMARKS
ASHEVILLE      CLOUDY    34  24  67 N17       29.96R WCI  23
JEFFERSON      CLOUDY    28  22  78 W15G29    29.86F WCI  16
MORGANTON      CLOUDY    42  28  58 W3        29.96F
HICKORY        CLOUDY    41  27  57 VRB3      29.93F
RUTHERFORDTON  NOT AVBL
MOUNT AIRY     CLOUDY    40  27  59 NW6       29.94F
BOONE          PTSUNNY   28  22  78 W15G32    29.90R WCI  16
$$

NCZ021-022-025-041-071-084-088-152000-
CENTRAL NORTH CAROLINA

CITY           SKY/WX    TMP DP  RH WIND       PRES   REMARKS
CHARLOTTE      CLOUDY    47  28  47 NW3       29.94F
GREENSBORO     CLOUDY    38  27  64 NW6       29.93S WCI  33
WINSTON-SALEM  CLOUDY    38  25  59 VRB3      29.95S
RALEIGH-DURHAM CLOUDY    43  27  53 W8        29.94R
FORT BRAGG     MOSUNNY   53  35  51 SW5       29.90F
FAYETTEVILLE   MOSUNNY   56  36  47 SW9       29.91F
BURLINGTON     CLOUDY    40  27  59 VRB5      29.94S
LAURINBURG     MOSUNNY   56  35  45 SW10      29.92F
$$

NCZ011-015-027-028-043-044-047-080-103-152000-
NORTHEASTERN NORTH CAROLINA

CITY           SKY/WX    TMP DP  RH WIND       PRES   REMARKS
ROCKY MT-WILSO MOSUNNY   49  33  54 SW7       29.90F
GREENVILLE     MOSUNNY   54  36  50 W10       29.91S
WASHINGTON     SUNNY     60  36  41 W10       29.88S
ELIZABETH CITY CLOUDY    59  44  57 SW17G25   29.83F
MANTEO         PTSUNNY   57  38  48 SW16G24   29.83F
CAPE HATTERAS  PTSUNNY   59  42  53 SW12G23   29.86F
$$

NCZ078-087-090-091-093-098-101-152000-
SOUTHEASTERN NORTH CAROLINA

CITY           SKY/WX    TMP DP  RH WIND       PRES   REMARKS
LUMBERTON      MOSUNNY   57  35  43 SW13      29.93R
GOLDSBORO      MOSUNNY   56  36  47 W14       29.88F
KINSTON        MOSUNNY   57  36  44 SW13G18   29.90S
KENANSVILLE    SUNNY     59  34  38 W14       29.90S
NEW BERN       SUNNY     60  38  43 SW12      29.88F
CHERRY POINT   MOSUNNY   59  39  47 W15       29.89F
BEAUFORT       CLOUDY    57  46  66 SW12      29.89F
JACKSONVILLE   SUNNY     59  37  44 SW10      29.89F
WILMINGTON     MOSUNNY   60  40  47 SW9       29.91F
$$




USA.gov is the U.S. government's official web portal to all federal, state and local government web resources and services.